Weather History for KNKT - October, 2013

Change the Weather History Date:

Thursday, October 3, 2013

  Actual Average Record
Temperature  
Mean Temperature 70 °F -  
Max Temperature 84 °F 76 °F 90 °F (2002)
Min Temperature 59 °F 57 °F 42 °F (2011)
Cooling Degree Days 6    
Growing Degree Days 20 (Base 50)    
Moisture  
Dew Point 61 °F    
Average Humidity 81    
Maximum Humidity 96    
Minimum Humidity 49    
Precipitation  
Precipitation 0.00 in - - ()
Sea Level Pressure  
Sea Level Pressure 30.12 in    
Wind  
Wind Speed 1 mph (SSW)    
Max Wind Speed 13 mph    
Max Gust Speed -    
Visibility 6 miles    
Events      
Averages and records for this station are not official NWS values.
T = Trace of Precipitation, MM = Missing Value Source: NWS Daily Summary

Daily Weather History Graph

Daily Weather History Graph

Search for Another Location

Airport or City:

Trip Planner

Search our weather history database for the weather conditions in past years. The results will help you decide how hot, cold, wet, or windy it might be!

Date:

Astronomy

Oct. 03, 2013 Rise Set
Actual Time 7:03 AM EDT 6:48 PM EDT
Civil Twilight 6:38 AM EDT 7:13 PM EDT
Nautical Twilight 6:09 AM EDT 7:42 PM EDT
Astronomical Twilight 5:40 AM EDT 8:12 PM EDT
Moon 5:37 AM EDT (10/3) 5:54 PM EDT (10/3)
Length of Visible Light 12h 34m
Length of Day
11h 44m
Waning Crescent, 2% of the Moon is Illuminated
Oct 3
Waning Crescent
Oct 4
New
Oct 11
First Quarter
Oct 18
Full
Oct 26
Last Quarter

Hourly Weather History & Observations

Time (EDT) Temp. Heat Index Dew Point Humidity Pressure Visibility Wind Dir Wind Speed Gust Speed Precip Events Conditions
12:54 AM 64.0 °F - 60.1 °F 87% 30.12 in 8.0 mi Calm Calm - N/A   Clear
1:54 AM 63.0 °F - 60.1 °F 90% 30.12 in 8.0 mi Calm Calm - N/A   Clear
2:54 AM 63.0 °F - 59.0 °F 87% 30.12 in 8.0 mi Calm Calm - N/A   Partly Cloudy
3:04 AM 63.0 °F - 59.0 °F 87% 30.12 in 1.8 mi Calm Calm - N/A   Partly Cloudy
3:07 AM 63.0 °F - 60.1 °F 90% 30.12 in 0.8 mi Calm Calm - N/A   Mist
3:11 AM 63.0 °F - 60.1 °F 90% 30.12 in 0.8 mi Calm Calm - N/A   Mist
3:18 AM 62.1 °F - 59.0 °F 90% 30.12 in 1.2 mi Calm Calm - N/A   Partly Cloudy
3:38 AM 63.0 °F - 59.0 °F 87% 30.11 in 1.0 mi Calm Calm - N/A   Mist
3:44 AM 64.0 °F - 59.0 °F 84% 30.11 in 0.8 mi Calm Calm - N/A   Haze
3:52 AM 62.6 °F - 57.2 °F 82% 30.12 in 9.0 mi Calm Calm - N/A   Clear
3:54 AM 62.1 °F - 57.9 °F 86% 30.11 in 9.0 mi Calm Calm - N/A   Clear
4:13 AM 62.1 °F - 59.0 °F 90% 30.12 in 6.0 mi Calm Calm - N/A   Partly Cloudy
4:31 AM 61.0 °F - 59.0 °F 93% 30.12 in 4.0 mi Calm Calm - N/A   Mostly Cloudy
4:34 AM 61.0 °F - 59.0 °F 93% 30.12 in 1.8 mi Calm Calm - N/A   Partly Cloudy
4:41 AM 61.0 °F - 57.9 °F 90% 30.12 in 6.0 mi Calm Calm - N/A   Partly Cloudy
4:54 AM 60.1 °F - 59.0 °F 96% 30.11 in 3.0 mi Calm Calm - N/A   Partly Cloudy
5:54 AM 60.1 °F - 57.0 °F 90% 30.12 in 6.0 mi Calm Calm - N/A   Scattered Clouds
6:29 AM 61.0 °F - 57.9 °F 90% 30.13 in 1.8 mi Calm Calm - N/A   Overcast
6:32 AM 61.0 °F - 57.9 °F 90% 30.13 in 6.0 mi Calm Calm - N/A   Partly Cloudy
6:41 AM 61.0 °F - 59.0 °F 93% 30.13 in 6.0 mi Calm Calm - N/A   Scattered Clouds
6:54 AM 59.0 °F - 57.0 °F 93% 30.12 in 6.0 mi Calm Calm - N/A   Scattered Clouds
7:54 AM 61.0 °F - 59.0 °F 93% 30.14 in 2.5 mi Calm Calm - N/A   Partly Cloudy
8:03 AM 63.0 °F - 60.1 °F 90% 30.15 in 4.0 mi Calm Calm - N/A   Clear
8:54 AM 71.1 °F - 64.0 °F 78% 30.14 in 6.0 mi NNW 3.5 mph - N/A   Clear
9:54 AM 75.0 °F - 64.9 °F 71% 30.15 in 10.0 mi West 4.6 mph - N/A   Clear
10:54 AM 79.0 °F - 63.0 °F 58% 30.16 in 10.0 mi West 4.6 mph - N/A   Clear
11:54 AM 82.0 °F 82.7 °F 61.0 °F 49% 30.15 in 10.0 mi Variable 3.5 mph - N/A   Partly Cloudy
12:54 PM 82.9 °F 83.7 °F 62.1 °F 49% 30.13 in 10.0 mi Variable 3.5 mph - N/A   Partly Cloudy
1:54 PM 82.9 °F 83.7 °F 62.1 °F 49% 30.11 in 10.0 mi Variable 5.8 mph - N/A   Scattered Clouds
2:54 PM 82.0 °F 82.7 °F 61.0 °F 49% 30.11 in 10.0 mi South 12.7 mph - N/A   Mostly Cloudy
3:54 PM 81.0 °F 81.6 °F 60.1 °F 49% 30.10 in 10.0 mi South 10.4 mph - N/A   Clear
4:54 PM 79.0 °F - 61.0 °F 54% 30.10 in 10.0 mi South 10.4 mph - N/A   Scattered Clouds
5:54 PM 77.0 °F - 63.0 °F 62% 30.10 in 10.0 mi SSW 9.2 mph - N/A   Clear
6:54 PM 73.0 °F - 64.9 °F 76% 30.11 in 10.0 mi South 5.8 mph - N/A   Scattered Clouds
7:54 PM 70.0 °F - 64.9 °F 84% 30.12 in 10.0 mi South 4.6 mph - N/A   Partly Cloudy
8:54 PM 68.0 °F - 64.9 °F 90% 30.13 in 9.0 mi South 4.6 mph - N/A   Clear
9:54 PM 70.0 °F - 66.0 °F 87% 30.13 in 8.0 mi South 5.8 mph - N/A   Clear
10:54 PM 66.9 °F - 64.9 °F 93% 30.14 in 6.0 mi South 4.6 mph - N/A   Clear